Time,TemperatureF,DewpointF,PressureIn,WindDirection,WindDirectionDegrees,WindSpeedMPH,WindSpeedGustMPH,Humidity,HourlyPrecipIn,Conditions,Clouds,dailyrainin,SoftwareType,DateUTC
2013-07-18 00:01:00,76.1,72.0,29.68,SSW,203,2.2,2.2,87,0.00,,,0.00,WUHU216HW,2013-07-18 05:01:00,
2013-07-18 00:06:00,76.1,72.0,29.68,SSW,203,1.6,2.2,87,0.00,,,0.00,WUHU216HW,2013-07-18 05:06:00,
2013-07-18 00:11:00,76.0,71.8,29.68,SSW,203,2.2,2.2,87,0.00,,,0.00,WUHU216HW,2013-07-18 05:11:00,
2013-07-18 00:16:00,75.8,72.4,29.68,SSW,203,1.8,2.2,89,0.00,,,0.00,WUHU216HW,2013-07-18 05:16:00,
2013-07-18 00:21:00,75.6,72.2,29.68,SSW,203,1.8,2.2,89,0.00,,,0.00,WUHU216HW,2013-07-18 05:21:00,
2013-07-18 00:26:00,75.6,72.2,29.68,SW,225,0.9,1.8,89,0.00,,,0.00,WUHU216HW,2013-07-18 05:26:00,
2013-07-18 00:31:00,75.6,72.2,29.68,SSW,203,2.9,2.9,89,0.00,,,0.00,WUHU216HW,2013-07-18 05:31:00,
2013-07-18 00:36:00,75.6,72.2,29.68,SW,225,1.6,2.9,89,0.00,,,0.00,WUHU216HW,2013-07-18 05:36:00,
2013-07-18 00:41:00,75.6,72.5,29.68,SW,225,0.9,2.9,90,0.00,,,0.00,WUHU216HW,2013-07-18 05:41:00,
2013-07-18 00:46:00,75.6,72.2,29.68,SW,225,0.4,1.6,89,0.00,,,0.00,WUHU216HW,2013-07-18 05:46:00,
2013-07-18 00:51:00,75.6,72.2,29.68,SW,225,0.9,0.9,89,0.00,,,0.00,WUHU216HW,2013-07-18 05:51:00,
2013-07-18 00:56:00,75.6,71.8,29.68,SW,225,0.9,1.8,88,0.00,,,0.00,WUHU216HW,2013-07-18 05:56:00,
2013-07-18 01:01:00,75.4,71.6,29.68,SW,225,0.4,1.8,88,0.00,,,0.00,WUHU216HW,2013-07-18 06:01:00,
2013-07-18 01:06:00,75.2,71.8,29.68,SW,225,0.7,0.9,89,0.00,,,0.00,WUHU216HW,2013-07-18 06:06:00,
2013-07-18 01:11:00,75.1,72.0,29.68,SSW,203,1.3,1.3,90,0.00,,,0.00,WUHU216HW,2013-07-18 06:11:00,
2013-07-18 01:16:00,75.1,72.0,29.68,SSW,203,1.1,1.3,90,0.00,,,0.00,WUHU216HW,2013-07-18 06:16:00,
2013-07-18 01:21:00,75.1,72.0,29.68,SSW,203,0.9,1.3,90,0.00,,,0.00,WUHU216HW,2013-07-18 06:21:00,
2013-07-18 01:26:00,75.2,72.2,29.68,SW,225,1.3,1.3,90,0.00,,,0.00,WUHU216HW,2013-07-18 06:26:00,
2013-07-18 01:31:00,75.2,72.2,29.68,SW,225,0.9,1.3,90,0.00,,,0.00,WUHU216HW,2013-07-18 06:31:00,
2013-07-18 01:36:00,75.2,72.2,29.67,WSW,248,1.6,1.6,90,0.00,,,0.00,WUHU216HW,2013-07-18 06:36:00,
2013-07-18 01:41:00,75.2,72.2,29.67,SW,225,1.1,1.6,90,0.00,,,0.00,WUHU216HW,2013-07-18 06:41:00,
2013-07-18 01:46:00,75.2,72.2,29.67,SW,225,1.1,1.6,90,0.00,,,0.00,WUHU216HW,2013-07-18 06:46:00,
2013-07-18 01:51:00,75.1,71.6,29.67,SSW,203,2.5,2.5,89,0.00,,,0.00,WUHU216HW,2013-07-18 06:51:00,
2013-07-18 01:56:00,74.9,71.5,29.67,SSW,203,2.0,2.5,89,0.00,,,0.00,WUHU216HW,2013-07-18 06:56:00,
2013-07-18 02:01:00,74.9,71.5,29.67,SSW,203,1.8,2.5,89,0.00,,,0.00,WUHU216HW,2013-07-18 07:01:00,
2013-07-18 02:06:00,74.2,71.1,29.67,SW,225,1.3,2.0,90,0.00,,,0.00,WUHU216HW,2013-07-18 07:06:00,
2013-07-18 02:11:00,74.3,71.6,29.67,SSW,203,0.7,1.8,91,0.00,,,0.00,WUHU216HW,2013-07-18 07:11:00,
2013-07-18 02:16:00,74.3,71.3,29.67,SSW,203,1.3,1.3,90,0.00,,,0.00,WUHU216HW,2013-07-18 07:16:00,
2013-07-18 02:21:00,74.5,71.5,29.67,SSW,203,1.6,2.2,90,0.00,,,0.00,WUHU216HW,2013-07-18 07:21:00,
2013-07-18 02:26:00,74.5,71.5,29.67,SSW,203,1.8,2.2,90,0.00,,,0.00,WUHU216HW,2013-07-18 07:26:00,
2013-07-18 02:31:00,74.5,71.7,29.67,SSW,203,1.1,1.8,91,0.00,,,0.00,WUHU216HW,2013-07-18 07:31:00,
2013-07-18 02:36:00,74.5,71.5,29.67,SSW,203,1.3,1.8,90,0.00,,,0.00,WUHU216HW,2013-07-18 07:36:00,
2013-07-18 02:41:00,74.5,71.5,29.67,SSW,203,1.8,1.8,90,0.00,,,0.00,WUHU216HW,2013-07-18 07:41:00,
2013-07-18 02:46:00,74.5,71.5,29.67,SSW,203,1.8,1.8,90,0.00,,,0.00,WUHU216HW,2013-07-18 07:46:00,
2013-07-18 02:51:00,74.3,71.3,29.67,SSW,203,0.9,1.8,90,0.00,,,0.00,WUHU216HW,2013-07-18 07:51:00,
2013-07-18 02:56:00,74.3,71.3,29.67,SSW,203,0.4,1.8,90,0.00,,,0.00,WUHU216HW,2013-07-18 07:56:00,
2013-07-18 03:01:00,74.3,71.3,29.67,SSW,203,0.7,0.9,90,0.00,,,0.00,WUHU216HW,2013-07-18 08:01:00,
2013-07-18 03:06:00,74.3,71.3,29.67,WSW,248,2.0,2.0,90,0.00,,,0.00,WUHU216HW,2013-07-18 08:06:00,
2013-07-18 03:11:00,74.5,71.7,29.67,WSW,248,2.7,2.7,91,0.00,,,0.00,WUHU216HW,2013-07-18 08:11:00,
2013-07-18 03:16:00,74.5,71.7,29.67,SW,225,1.1,2.7,91,0.00,,,0.00,WUHU216HW,2013-07-18 08:16:00,
2013-07-18 03:21:00,74.5,71.7,29.67,SW,225,0.9,2.7,91,0.00,,,0.00,WUHU216HW,2013-07-18 08:21:00,
2013-07-18 03:26:00,74.5,72.1,29.66,SW,225,2.2,2.2,92,0.00,,,0.00,WUHU216HW,2013-07-18 08:26:00,
2013-07-18 03:31:00,74.5,71.7,29.66,SW,225,1.1,2.5,91,0.00,,,0.00,WUHU216HW,2013-07-18 08:31:00,
2013-07-18 03:36:00,74.5,71.7,29.66,SW,225,1.8,2.5,91,0.00,,,0.00,WUHU216HW,2013-07-18 08:36:00,
2013-07-18 03:41:00,74.5,71.7,29.67,SW,225,2.5,2.5,91,0.00,,,0.00,WUHU216HW,2013-07-18 08:41:00,
2013-07-18 03:46:00,74.5,71.7,29.66,WSW,248,1.8,3.4,91,0.00,,,0.00,WUHU216HW,2013-07-18 08:46:00,
2013-07-18 03:51:00,74.7,71.9,29.66,SW,225,2.5,3.4,91,0.00,,,0.00,WUHU216HW,2013-07-18 08:51:00,
2013-07-18 03:56:00,74.7,71.9,29.66,WSW,248,2.0,2.5,91,0.00,,,0.00,WUHU216HW,2013-07-18 08:56:00,
2013-07-18 04:01:00,74.7,71.6,29.66,SSW,203,1.6,2.5,90,0.00,,,0.00,WUHU216HW,2013-07-18 09:01:00,
2013-07-18 04:06:00,74.7,71.6,29.66,WSW,248,1.8,2.0,90,0.00,,,0.00,WUHU216HW,2013-07-18 09:06:00,
2013-07-18 04:11:00,74.9,71.8,29.66,SW,225,0.9,1.8,90,0.00,,,0.00,WUHU216HW,2013-07-18 09:11:00,
2013-07-18 04:16:00,74.9,71.8,29.66,SW,225,1.8,1.8,90,0.00,,,0.00,WUHU216HW,2013-07-18 09:16:00,
2013-07-18 04:21:00,74.9,71.5,29.66,WSW,248,2.5,2.5,89,0.00,,,0.00,WUHU216HW,2013-07-18 09:21:00,
2013-07-18 04:26:00,74.9,71.5,29.65,SW,225,1.8,2.5,89,0.00,,,0.00,WUHU216HW,2013-07-18 09:26:00,
2013-07-18 04:31:00,74.9,71.5,29.65,WSW,248,2.5,2.5,89,0.00,,,0.00,WUHU216HW,2013-07-18 09:31:00,
2013-07-18 04:36:00,74.9,71.5,29.65,SW,225,1.3,2.5,89,0.00,,,0.00,WUHU216HW,2013-07-18 09:36:00,
2013-07-18 04:41:00,74.9,71.5,29.65,SSW,203,2.2,2.5,89,0.00,,,0.00,WUHU216HW,2013-07-18 09:41:00,
2013-07-18 04:46:00,74.9,71.5,29.65,SW,225,0.9,2.2,89,0.00,,,0.00,WUHU216HW,2013-07-18 09:46:00,
2013-07-18 04:51:00,74.9,71.5,29.65,SW,225,1.1,2.2,89,0.00,,,0.00,WUHU216HW,2013-07-18 09:51:00,
2013-07-18 04:56:00,74.9,71.5,29.65,SW,225,1.1,1.1,89,0.00,,,0.00,WUHU216HW,2013-07-18 09:56:00,
2013-07-18 05:01:00,74.7,71.3,29.64,WSW,248,1.1,2.0,89,0.00,,,0.00,WUHU216HW,2013-07-18 10:01:00,
2013-07-18 05:06:00,74.7,71.3,29.64,SSW,203,0.9,2.0,89,0.00,,,0.00,WUHU216HW,2013-07-18 10:06:00,
2013-07-18 05:11:00,74.5,71.1,29.64,WSW,248,0.4,1.1,89,0.00,,,0.00,WUHU216HW,2013-07-18 10:11:00,
2013-07-18 05:16:00,74.5,71.1,29.64,SW,225,1.1,1.1,89,0.00,,,0.00,WUHU216HW,2013-07-18 10:16:00,
2013-07-18 05:21:00,74.5,71.1,29.64,SSW,203,1.3,1.3,89,0.00,,,0.00,WUHU216HW,2013-07-18 10:21:00,
2013-07-18 05:26:00,74.3,70.9,29.64,SSW,203,0.4,1.3,89,0.00,,,0.00,WUHU216HW,2013-07-18 10:26:00,
2013-07-18 05:31:00,74.2,70.7,29.64,SW,225,0.4,1.3,89,0.00,,,0.00,WUHU216HW,2013-07-18 10:31:00,
2013-07-18 05:36:00,74.2,70.7,29.64,SW,225,1.6,1.8,89,0.00,,,0.00,WUHU216HW,2013-07-18 10:36:00,
2013-07-18 05:41:00,74.0,70.6,29.64,SW,225,0.7,1.8,89,0.00,,,0.00,WUHU216HW,2013-07-18 10:41:00,
2013-07-18 05:46:00,74.0,70.6,29.64,SW,225,1.1,1.6,89,0.00,,,0.00,WUHU216HW,2013-07-18 10:46:00,
2013-07-18 05:51:00,73.8,70.4,29.63,SSW,203,0.9,1.6,89,0.00,,,0.00,WUHU216HW,2013-07-18 10:51:00,
2013-07-18 05:56:00,73.8,70.4,29.63,SSW,203,1.1,1.6,89,0.00,,,0.00,WUHU216HW,2013-07-18 10:56:00,
2013-07-18 06:01:00,73.8,70.4,29.63,SSW,203,1.1,1.1,89,0.00,,,0.00,WUHU216HW,2013-07-18 11:01:00,
2013-07-18 06:06:00,74.0,70.6,29.63,WSW,248,1.6,1.6,89,0.00,,,0.00,WUHU216HW,2013-07-18 11:06:00,
2013-07-18 06:11:00,74.2,71.1,29.63,WSW,248,2.9,2.9,90,0.00,,,0.00,WUHU216HW,2013-07-18 11:11:00,
2013-07-18 06:16:00,74.2,71.1,29.63,SW,225,0.9,2.9,90,0.00,,,0.00,WUHU216HW,2013-07-18 11:16:00,
2013-07-18 06:21:00,74.5,71.5,29.63,SW,225,4.3,4.3,90,0.00,,,0.00,WUHU216HW,2013-07-18 11:21:00,
2013-07-18 06:26:00,74.5,71.5,29.63,SW,225,0.9,4.3,90,0.00,,,0.00,WUHU216HW,2013-07-18 11:26:00,
2013-07-18 06:31:00,74.7,71.6,29.63,SW,225,1.3,4.3,90,0.00,,,0.00,WUHU216HW,2013-07-18 11:31:00,
2013-07-18 06:36:00,74.9,71.8,29.62,South,180,2.0,2.0,90,0.00,,,0.00,WUHU216HW,2013-07-18 11:36:00,
2013-07-18 06:41:00,75.1,71.6,29.63,SSW,203,1.8,2.0,89,0.00,,,0.00,WUHU216HW,2013-07-18 11:41:00,
2013-07-18 06:46:00,75.2,71.8,29.63,SW,225,0.4,2.0,89,0.00,,,0.00,WUHU216HW,2013-07-18 11:46:00,
2013-07-18 06:51:00,75.4,72.0,29.62,WSW,248,2.2,2.2,89,0.00,,,0.00,WUHU216HW,2013-07-18 11:51:00,
2013-07-18 06:56:00,75.6,72.2,29.63,SW,225,0.9,2.2,89,0.00,,,0.00,WUHU216HW,2013-07-18 11:56:00,
2013-07-18 07:01:00,75.8,72.4,29.63,SW,225,1.1,2.2,89,0.00,,,0.00,WUHU216HW,2013-07-18 12:01:00,
2013-07-18 07:06:00,76.3,72.9,29.63,South,180,2.2,2.2,89,0.00,,,0.00,WUHU216HW,2013-07-18 12:06:00,
2013-07-18 07:11:00,76.7,72.9,29.63,SSW,203,1.8,2.2,88,0.00,,,0.00,WUHU216HW,2013-07-18 12:11:00,
2013-07-18 07:16:00,76.7,72.5,29.63,SW,225,1.1,2.2,87,0.00,,,0.00,WUHU216HW,2013-07-18 12:16:00,
2013-07-18 07:21:00,77.2,73.1,29.63,WSW,248,0.0,1.8,87,0.00,,,0.00,WUHU216HW,2013-07-18 12:21:00,
2013-07-18 07:26:00,77.4,72.9,29.63,SW,225,0.9,1.8,86,0.00,,,0.00,WUHU216HW,2013-07-18 12:26:00,
2013-07-18 07:31:00,77.8,73.3,29.63,SW,225,1.8,1.8,86,0.00,,,0.00,WUHU216HW,2013-07-18 12:31:00,
2013-07-18 07:36:00,78.1,73.3,29.63,SSW,203,2.7,2.7,85,0.00,,,0.00,WUHU216HW,2013-07-18 12:36:00,
2013-07-18 07:41:00,78.3,73.1,29.63,WSW,248,2.7,2.7,84,0.00,,,0.00,WUHU216HW,2013-07-18 12:41:00,
2013-07-18 07:46:00,78.5,73.3,29.63,SSW,203,2.9,2.9,84,0.00,,,0.00,WUHU216HW,2013-07-18 12:46:00,
2013-07-18 07:51:00,78.7,73.1,29.63,SW,225,3.4,3.4,83,0.00,,,0.00,WUHU216HW,2013-07-18 12:51:00,
2013-07-18 07:56:00,78.8,73.3,29.62,SW,225,2.5,3.4,83,0.00,,,0.00,WUHU216HW,2013-07-18 12:56:00,
2013-07-18 08:01:00,79.0,73.5,29.62,SW,225,1.6,3.4,83,0.00,,,0.00,WUHU216HW,2013-07-18 13:01:00,
2013-07-18 08:06:00,79.4,73.8,29.62,SW,225,0.9,2.5,83,0.00,,,0.00,WUHU216HW,2013-07-18 13:06:00,
2013-07-18 08:11:00,79.7,73.5,29.62,WSW,248,2.5,2.5,81,0.00,,,0.00,WUHU216HW,2013-07-18 13:11:00,
2013-07-18 08:16:00,79.9,73.6,29.62,SW,225,3.1,3.1,81,0.00,,,0.00,WUHU216HW,2013-07-18 13:16:00,
2013-07-18 08:21:00,80.5,73.8,29.62,WSW,248,2.5,4.0,80,0.00,,,0.00,WUHU216HW,2013-07-18 13:21:00,
2013-07-18 08:26:00,80.6,73.6,29.62,SW,225,4.7,4.7,79,0.00,,,0.00,WUHU216HW,2013-07-18 13:26:00,
2013-07-18 08:31:00,80.8,73.8,29.62,SSW,203,4.7,4.7,79,0.00,,,0.00,WUHU216HW,2013-07-18 13:31:00,
2013-07-18 08:36:00,81.4,73.9,29.62,SSW,203,3.8,4.7,78,0.00,,,0.00,WUHU216HW,2013-07-18 13:36:00,
2013-07-18 08:41:00,81.4,73.9,29.62,WSW,248,2.5,4.7,78,0.00,,,0.00,WUHU216HW,2013-07-18 13:41:00,
2013-07-18 08:46:00,81.7,73.8,29.62,SSW,203,2.9,3.8,77,0.00,,,0.00,WUHU216HW,2013-07-18 13:46:00,
2013-07-18 08:51:00,81.7,73.8,29.62,SSW,203,3.1,3.1,77,0.00,,,0.00,WUHU216HW,2013-07-18 13:51:00,
2013-07-18 08:56:00,82.1,74.2,29.62,SW,225,4.3,4.3,77,0.00,,,0.00,WUHU216HW,2013-07-18 13:56:00,
2013-07-18 09:01:00,82.3,74.3,29.62,SW,225,4.3,4.3,77,0.00,,,0.00,WUHU216HW,2013-07-18 14:01:00,
2013-07-18 09:06:00,82.4,75.0,29.62,SSW,203,2.5,4.3,78,0.00,,,0.00,WUHU216HW,2013-07-18 14:06:00,
2013-07-18 09:11:00,82.8,74.1,29.61,South,180,4.3,4.3,75,0.00,,,0.00,WUHU216HW,2013-07-18 14:11:00,
2013-07-18 09:16:00,83.0,74.6,29.61,WSW,248,3.4,4.3,76,0.00,,,0.00,WUHU216HW,2013-07-18 14:16:00,
2013-07-18 09:21:00,83.3,74.2,29.61,SW,225,3.8,4.3,74,0.00,,,0.00,WUHU216HW,2013-07-18 14:21:00,
2013-07-18 09:26:00,83.7,74.9,29.61,SW,225,1.8,4.0,75,0.00,,,0.00,WUHU216HW,2013-07-18 14:26:00,
2013-07-18 09:31:00,83.9,74.3,29.61,SSE,158,5.6,5.6,73,0.00,,,0.00,WUHU216HW,2013-07-18 14:31:00,
2013-07-18 09:36:00,83.9,73.9,29.61,WSW,248,8.9,8.9,72,0.00,,,0.00,WUHU216HW,2013-07-18 14:36:00,
2013-07-18 09:41:00,84.2,74.6,29.61,SSW,203,2.2,8.9,73,0.00,,,0.00,WUHU216HW,2013-07-18 14:41:00,
2013-07-18 09:46:00,84.6,74.2,29.61,WSW,248,3.4,8.9,71,0.00,,,0.00,WUHU216HW,2013-07-18 14:46:00,
2013-07-18 09:51:00,84.6,74.6,29.61,WSW,248,5.8,5.8,72,0.00,,,0.00,WUHU216HW,2013-07-18 14:51:00,
2013-07-18 09:56:00,85.0,74.5,29.61,SSW,203,6.5,6.5,71,0.00,,,0.00,WUHU216HW,2013-07-18 14:56:00,
2013-07-18 09:57:00,85.0,74.5,29.61,SSW,203,6.5,6.5,71,0.00,,,0.00,WUHU216HW,2013-07-18 14:57:00,
2013-07-18 10:02:00,85.1,74.7,29.61,SW,225,3.4,6.5,71,0.00,,,0.00,WUHU216HW,2013-07-18 15:02:00,
2013-07-18 10:07:00,85.3,74.9,29.61,WSW,248,1.6,6.5,71,0.00,,,0.00,WUHU216HW,2013-07-18 15:07:00,
2013-07-18 10:12:00,85.7,74.4,29.61,SW,225,3.1,5.8,69,0.00,,,0.00,WUHU216HW,2013-07-18 15:12:00,
2013-07-18 10:17:00,85.7,74.4,29.61,SW,225,4.7,5.8,69,0.00,,,0.00,WUHU216HW,2013-07-18 15:17:00,
2013-07-18 10:22:00,86.0,74.8,29.61,WSW,248,5.4,5.4,69,0.00,,,0.00,WUHU216HW,2013-07-18 15:22:00,
2013-07-18 10:27:00,86.2,74.4,29.60,SW,225,7.6,7.6,68,0.00,,,0.00,WUHU216HW,2013-07-18 15:27:00,
2013-07-18 10:32:00,86.2,75.0,29.60,WSW,248,1.8,7.6,69,0.00,,,0.00,WUHU216HW,2013-07-18 15:32:00,
2013-07-18 10:37:00,86.8,74.5,29.60,SW,225,3.4,7.6,67,0.00,,,0.00,WUHU216HW,2013-07-18 15:37:00,
2013-07-18 10:42:00,86.8,74.5,29.60,WSW,248,6.0,6.0,67,0.00,,,0.00,WUHU216HW,2013-07-18 15:42:00,
2013-07-18 10:47:00,86.9,74.7,29.60,West,270,3.4,6.0,67,0.00,,,0.00,WUHU216HW,2013-07-18 15:47:00,
2013-07-18 10:52:00,87.3,74.1,29.60,SSW,203,5.8,6.0,65,0.00,,,0.00,WUHU216HW,2013-07-18 15:52:00,
2013-07-18 10:57:00,87.5,74.7,29.60,West,270,3.4,5.8,66,0.00,,,0.00,WUHU216HW,2013-07-18 15:57:00,
2013-07-18 11:02:00,87.5,75.2,29.59,SW,225,7.8,7.8,67,0.00,,,0.00,WUHU216HW,2013-07-18 16:02:00,
2013-07-18 11:07:00,87.7,75.3,29.59,SSW,203,2.9,7.8,67,0.00,,,0.00,WUHU216HW,2013-07-18 16:07:00,
2013-07-18 11:12:00,87.8,74.6,29.59,SW,225,7.6,7.8,65,0.00,,,0.00,WUHU216HW,2013-07-18 16:12:00,
2013-07-18 11:17:00,87.8,74.2,29.59,WSW,248,6.0,7.6,64,0.00,,,0.00,WUHU216HW,2013-07-18 16:17:00,
2013-07-18 11:22:00,87.8,75.1,29.59,WSW,248,2.7,7.6,66,0.00,,,0.00,WUHU216HW,2013-07-18 16:22:00,
2013-07-18 11:27:00,88.0,74.4,29.59,WSW,248,5.4,6.0,64,0.00,,,0.00,WUHU216HW,2013-07-18 16:27:00,
2013-07-18 11:32:00,88.2,75.0,29.58,WSW,248,4.0,5.4,65,0.00,,,0.00,WUHU216HW,2013-07-18 16:32:00,
2013-07-18 11:37:00,88.4,74.3,29.59,SW,225,3.6,5.4,63,0.00,,,0.00,WUHU216HW,2013-07-18 16:37:00,
2013-07-18 11:42:00,88.2,74.1,29.59,SSW,203,2.2,4.0,63,0.00,,,0.00,WUHU216HW,2013-07-18 16:42:00,
2013-07-18 11:47:00,88.6,74.3,29.58,WSW,248,9.2,9.2,63,0.00,,,0.00,WUHU216HW,2013-07-18 16:47:00,
2013-07-18 11:52:00,88.4,73.3,29.58,SSW,203,8.1,9.2,61,0.00,,,0.00,WUHU216HW,2013-07-18 16:52:00,
2013-07-18 11:57:00,88.4,73.8,29.58,WSW,248,6.3,9.2,62,0.00,,,0.00,WUHU216HW,2013-07-18 16:57:00,
2013-07-18 12:02:00,88.6,74.3,29.58,WSW,248,7.6,8.1,63,0.00,,,0.00,WUHU216HW,2013-07-18 17:02:00,
2013-07-18 12:07:00,88.7,74.1,29.58,SW,225,8.7,8.7,62,0.00,,,0.00,WUHU216HW,2013-07-18 17:07:00,
2013-07-18 12:12:00,88.7,73.6,29.58,SW,225,2.5,8.7,61,0.00,,,0.00,WUHU216HW,2013-07-18 17:12:00,
2013-07-18 12:17:00,88.6,73.0,29.58,SSW,203,6.3,8.7,60,0.00,,,0.00,WUHU216HW,2013-07-18 17:17:00,
2013-07-18 12:22:00,88.6,72.5,29.58,WSW,248,6.9,6.9,59,0.00,,,0.00,WUHU216HW,2013-07-18 17:22:00,
2013-07-18 12:27:00,88.6,73.0,29.57,SW,225,4.5,6.9,60,0.00,,,0.00,WUHU216HW,2013-07-18 17:27:00,
2013-07-18 12:32:00,88.6,72.5,29.57,WSW,248,6.5,6.9,59,0.00,,,0.00,WUHU216HW,2013-07-18 17:32:00,
2013-07-18 12:37:00,88.9,74.3,29.57,SSW,203,5.4,7.6,62,0.00,,,0.00,WUHU216HW,2013-07-18 17:37:00,
2013-07-18 12:42:00,89.3,74.2,29.57,SW,225,3.6,7.6,61,0.00,,,0.00,WUHU216HW,2013-07-18 17:42:00,
2013-07-18 12:47:00,89.3,74.2,29.57,SSW,203,6.3,6.3,61,0.00,,,0.00,WUHU216HW,2013-07-18 17:47:00,
2013-07-18 12:52:00,89.3,74.6,29.57,WSW,248,3.4,6.3,62,0.00,,,0.00,WUHU216HW,2013-07-18 17:52:00,
2013-07-18 12:57:00,88.9,75.2,29.56,WSW,248,2.7,8.5,64,0.00,,,0.00,WUHU216HW,2013-07-18 17:57:00,
2013-07-18 13:02:00,89.3,74.2,29.56,SW,225,3.1,8.5,61,0.00,,,0.00,WUHU216HW,2013-07-18 18:02:00,
2013-07-18 13:07:00,89.5,74.8,29.56,SSW,203,4.7,4.7,62,0.00,,,0.00,WUHU216HW,2013-07-18 18:07:00,
2013-07-18 13:12:00,89.5,72.7,29.56,SSW,203,6.0,6.0,58,0.00,,,0.00,WUHU216HW,2013-07-18 18:12:00,
2013-07-18 13:17:00,89.6,74.0,29.56,WSW,248,4.9,6.0,60,0.00,,,0.00,WUHU216HW,2013-07-18 18:17:00,
2013-07-18 13:22:00,89.8,73.1,29.55,SSW,203,8.3,8.3,58,0.00,,,0.00,WUHU216HW,2013-07-18 18:22:00,
2013-07-18 13:27:00,89.6,72.4,29.55,South,180,7.4,8.3,57,0.00,,,0.00,WUHU216HW,2013-07-18 18:27:00,
2013-07-18 13:32:00,89.8,73.6,29.55,SW,225,7.6,8.3,59,0.00,,,0.00,WUHU216HW,2013-07-18 18:32:00,
2013-07-18 13:37:00,89.8,73.6,29.54,SSW,203,5.8,7.6,59,0.00,,,0.00,WUHU216HW,2013-07-18 18:37:00,
2013-07-18 13:42:00,89.8,73.6,29.54,SW,225,6.7,7.6,59,0.00,,,0.00,WUHU216HW,2013-07-18 18:42:00,
2013-07-18 13:47:00,89.8,73.1,29.54,SSW,203,3.8,6.7,58,0.00,,,0.00,WUHU216HW,2013-07-18 18:47:00,
2013-07-18 13:52:00,90.0,73.8,29.54,SW,225,2.9,6.7,59,0.00,,,0.00,WUHU216HW,2013-07-18 18:52:00,
2013-07-18 13:57:00,90.0,74.4,29.53,West,270,5.6,9.2,60,0.00,,,0.00,WUHU216HW,2013-07-18 18:57:00,
2013-07-18 14:02:00,89.6,72.4,29.53,SW,225,3.6,9.2,57,0.00,,,0.00,WUHU216HW,2013-07-18 19:02:00,
2013-07-18 14:07:00,89.5,73.3,29.53,SW,225,7.6,7.6,59,0.00,,,0.00,WUHU216HW,2013-07-18 19:07:00,
2013-07-18 14:12:00,89.8,72.6,29.53,SW,225,7.2,8.7,57,0.00,,,0.00,WUHU216HW,2013-07-18 19:12:00,
2013-07-18 14:17:00,89.8,72.6,29.53,SSW,203,4.0,8.7,57,0.00,,,0.00,WUHU216HW,2013-07-18 19:17:00,
2013-07-18 14:22:00,89.6,73.4,29.53,SSW,203,5.6,7.2,59,0.00,,,0.00,WUHU216HW,2013-07-18 19:22:00,
2013-07-18 14:27:00,90.0,73.8,29.53,SSE,158,6.9,6.9,59,0.00,,,0.00,WUHU216HW,2013-07-18 19:27:00,
2013-07-18 14:32:00,89.8,73.1,29.52,SSW,203,3.8,6.9,58,0.00,,,0.00,WUHU216HW,2013-07-18 19:32:00,
2013-07-18 14:37:00,89.5,72.7,29.52,WSW,248,5.6,6.9,58,0.00,,,0.00,WUHU216HW,2013-07-18 19:37:00,
2013-07-18 14:42:00,89.6,72.9,29.52,WNW,293,5.6,5.6,58,0.00,,,0.00,WUHU216HW,2013-07-18 19:42:00,
2013-07-18 14:47:00,89.8,72.6,29.51,SW,225,4.9,5.6,57,0.00,,,0.00,WUHU216HW,2013-07-18 19:47:00,
2013-07-18 14:52:00,90.0,73.8,29.51,South,180,7.8,7.8,59,0.00,,,0.00,WUHU216HW,2013-07-18 19:52:00,
2013-07-18 14:57:00,89.8,73.6,29.51,SSW,203,5.1,7.8,59,0.00,,,0.00,WUHU216HW,2013-07-18 19:57:00,
2013-07-18 15:02:00,89.8,73.1,29.51,West,270,2.5,7.8,58,0.00,,,0.00,WUHU216HW,2013-07-18 20:02:00,
2013-07-18 15:07:00,90.2,73.4,29.51,SW,225,3.8,5.1,58,0.00,,,0.00,WUHU216HW,2013-07-18 20:07:00,
2013-07-18 15:12:00,90.0,72.2,29.51,SW,225,4.0,4.0,56,0.00,,,0.00,WUHU216HW,2013-07-18 20:12:00,
2013-07-18 15:17:00,90.0,71.7,29.51,SW,225,7.8,7.8,55,0.00,,,0.00,WUHU216HW,2013-07-18 20:17:00,
2013-07-18 15:22:00,89.6,71.3,29.50,SW,225,8.7,8.7,55,0.00,,,0.00,WUHU216HW,2013-07-18 20:22:00,
2013-07-18 15:27:00,89.8,72.6,29.50,WSW,248,4.0,8.7,57,0.00,,,0.00,WUHU216HW,2013-07-18 20:27:00,
2013-07-18 15:32:00,89.8,72.6,29.50,SSW,203,7.4,8.7,57,0.00,,,0.00,WUHU216HW,2013-07-18 20:32:00,
2013-07-18 15:37:00,89.8,72.6,29.50,SW,225,4.0,7.4,57,0.00,,,0.00,WUHU216HW,2013-07-18 20:37:00,
2013-07-18 15:42:00,90.0,72.7,29.50,SSW,203,6.3,7.4,57,0.00,,,0.00,WUHU216HW,2013-07-18 20:42:00,
2013-07-18 15:47:00,89.8,72.6,29.49,West,270,6.9,6.9,57,0.00,,,0.00,WUHU216HW,2013-07-18 20:47:00,
2013-07-18 15:52:00,90.0,73.3,29.49,SSW,203,5.4,6.9,58,0.00,,,0.00,WUHU216HW,2013-07-18 20:52:00,
2013-07-18 15:57:00,89.5,72.7,29.49,SW,225,5.4,6.9,58,0.00,,,0.00,WUHU216HW,2013-07-18 20:57:00,
2013-07-18 16:02:00,89.3,72.5,29.49,South,180,4.9,5.4,58,0.00,,,0.00,WUHU216HW,2013-07-18 21:02:00,
2013-07-18 16:07:00,89.6,73.4,29.48,SSE,158,7.2,7.2,59,0.00,,,0.00,WUHU216HW,2013-07-18 21:07:00,
2013-07-18 16:12:00,89.6,73.4,29.48,SSW,203,8.9,8.9,59,0.00,,,0.00,WUHU216HW,2013-07-18 21:12:00,
2013-07-18 16:17:00,89.6,72.9,29.48,SW,225,3.4,9.2,58,0.00,,,0.00,WUHU216HW,2013-07-18 21:17:00,
2013-07-18 16:22:00,89.8,72.6,29.48,SW,225,6.0,9.2,57,0.00,,,0.00,WUHU216HW,2013-07-18 21:22:00,
2013-07-18 16:27:00,89.5,72.2,29.48,SW,225,5.4,6.3,57,0.00,,,0.00,WUHU216HW,2013-07-18 21:27:00,
2013-07-18 16:32:00,89.5,73.3,29.48,West,270,3.6,6.3,59,0.00,,,0.00,WUHU216HW,2013-07-18 21:32:00,
2013-07-18 16:37:00,89.6,72.9,29.47,SSW,203,3.4,5.4,58,0.00,,,0.00,WUHU216HW,2013-07-18 21:37:00,
2013-07-18 16:42:00,89.5,72.2,29.47,WSW,248,8.5,8.5,57,0.00,,,0.00,WUHU216HW,2013-07-18 21:42:00,
2013-07-18 16:47:00,89.3,71.5,29.47,WSW,248,8.3,8.5,56,0.00,,,0.00,WUHU216HW,2013-07-18 21:47:00,
2013-07-18 16:52:00,89.3,72.0,29.47,SW,225,8.9,8.9,57,0.00,,,0.00,WUHU216HW,2013-07-18 21:52:00,
2013-07-18 16:57:00,89.3,73.1,29.47,SW,225,5.1,8.9,59,0.00,,,0.00,WUHU216HW,2013-07-18 21:57:00,
2013-07-18 17:02:00,89.3,72.5,29.47,SW,225,4.7,8.9,58,0.00,,,0.00,WUHU216HW,2013-07-18 22:02:00,
2013-07-18 17:07:00,89.3,72.5,29.47,WSW,248,7.6,7.6,58,0.00,,,0.00,WUHU216HW,2013-07-18 22:07:00,
2013-07-18 17:12:00,89.3,72.0,29.46,WSW,248,6.3,8.9,57,0.00,,,0.00,WUHU216HW,2013-07-18 22:12:00,
2013-07-18 17:17:00,89.1,71.9,29.46,West,270,9.2,9.2,57,0.00,,,0.00,WUHU216HW,2013-07-18 22:17:00,
2013-07-18 17:22:00,88.9,71.7,29.46,SW,225,5.4,9.2,57,0.00,,,0.00,WUHU216HW,2013-07-18 22:22:00,
2013-07-18 17:27:00,88.9,72.8,29.46,SSW,203,2.7,9.2,59,0.00,,,0.00,WUHU216HW,2013-07-18 22:27:00,
2013-07-18 17:32:00,88.9,71.7,29.46,SW,225,6.3,6.3,57,0.00,,,0.00,WUHU216HW,2013-07-18 22:32:00,
2013-07-18 17:37:00,88.9,72.3,29.46,WSW,248,4.5,6.3,58,0.00,,,0.00,WUHU216HW,2013-07-18 22:37:00,
2013-07-18 17:42:00,88.9,72.3,29.46,SSW,203,7.2,7.2,58,0.00,,,0.00,WUHU216HW,2013-07-18 22:42:00,
2013-07-18 17:47:00,88.7,71.6,29.45,SSW,203,8.5,8.5,57,0.00,,,0.00,WUHU216HW,2013-07-18 22:47:00,
2013-07-18 17:52:00,88.6,71.9,29.45,SW,225,8.5,8.5,58,0.00,,,0.00,WUHU216HW,2013-07-18 22:52:00,
2013-07-18 17:57:00,88.4,71.7,29.45,SW,225,9.2,9.2,58,0.00,,,0.00,WUHU216HW,2013-07-18 22:57:00,
2013-07-18 18:02:00,88.4,71.7,29.45,SSW,203,4.7,9.2,58,0.00,,,0.00,WUHU216HW,2013-07-18 23:02:00,
2013-07-18 18:07:00,88.2,72.2,29.45,SSW,203,3.8,9.2,59,0.00,,,0.00,WUHU216HW,2013-07-18 23:07:00,
2013-07-18 18:12:00,88.2,72.2,29.45,SW,225,4.7,4.9,59,0.00,,,0.00,WUHU216HW,2013-07-18 23:12:00,
2013-07-18 18:17:00,88.0,72.0,29.45,SW,225,3.4,4.9,59,0.00,,,0.00,WUHU216HW,2013-07-18 23:17:00,
2013-07-18 18:22:00,87.8,71.3,29.44,SSW,203,6.3,6.3,58,0.00,,,0.00,WUHU216HW,2013-07-18 23:22:00,
2013-07-18 18:27:00,87.5,72.0,29.44,WSW,248,4.0,6.9,60,0.00,,,0.00,WUHU216HW,2013-07-18 23:27:00,
2013-07-18 18:32:00,87.5,72.0,29.44,SW,225,6.5,6.9,60,0.00,,,0.00,WUHU216HW,2013-07-18 23:32:00,
2013-07-18 18:37:00,87.5,71.5,29.44,South,180,2.0,6.5,59,0.00,,,0.00,WUHU216HW,2013-07-18 23:37:00,
2013-07-18 18:42:00,87.3,72.3,29.44,SSW,203,3.8,6.5,61,0.00,,,0.00,WUHU216HW,2013-07-18 23:42:00,
2013-07-18 18:47:00,87.1,72.1,29.44,WSW,248,6.7,6.7,61,0.00,,,0.00,WUHU216HW,2013-07-18 23:47:00,
2013-07-18 18:52:00,86.9,71.9,29.44,SW,225,2.9,6.7,61,0.00,,,0.00,WUHU216HW,2013-07-18 23:52:00,
2013-07-18 18:57:00,86.9,71.9,29.43,WSW,248,5.4,6.7,61,0.00,,,0.00,WUHU216HW,2013-07-18 23:57:00,
2013-07-18 19:02:00,86.8,72.2,29.43,SW,225,4.0,5.4,62,0.00,,,0.00,WUHU216HW,2013-07-19 00:02:00,
2013-07-18 19:07:00,86.6,72.5,29.44,SW,225,4.7,5.1,63,0.00,,,0.00,WUHU216HW,2013-07-19 00:07:00,
2013-07-18 19:12:00,86.4,72.3,29.43,SW,225,4.0,4.7,63,0.00,,,0.00,WUHU216HW,2013-07-19 00:12:00,
2013-07-18 19:17:00,86.2,72.2,29.43,SW,225,6.3,6.3,63,0.00,,,0.00,WUHU216HW,2013-07-19 00:17:00,
2013-07-18 19:22:00,86.0,72.5,29.43,SW,225,5.4,6.3,64,0.00,,,0.00,WUHU216HW,2013-07-19 00:22:00,
2013-07-18 19:27:00,86.0,72.0,29.43,SW,225,3.6,6.3,63,0.00,,,0.00,WUHU216HW,2013-07-19 00:27:00,
2013-07-18 19:32:00,85.7,72.1,29.43,WSW,248,7.2,7.2,64,0.00,,,0.00,WUHU216HW,2013-07-19 00:32:00,
2013-07-18 19:37:00,85.5,71.9,29.43,SSW,203,5.4,7.2,64,0.00,,,0.00,WUHU216HW,2013-07-19 00:37:00,
2013-07-18 19:42:00,85.3,71.7,29.43,SSW,203,3.4,7.2,64,0.00,,,0.00,WUHU216HW,2013-07-19 00:42:00,
2013-07-18 19:47:00,85.1,72.0,29.42,SW,225,2.9,5.4,65,0.00,,,0.00,WUHU216HW,2013-07-19 00:47:00,
2013-07-18 19:52:00,85.0,71.9,29.42,SW,225,2.5,4.0,65,0.00,,,0.00,WUHU216HW,2013-07-19 00:52:00,
2013-07-18 19:57:00,85.0,72.4,29.42,SSW,203,3.6,3.6,66,0.00,,,0.00,WUHU216HW,2013-07-19 00:57:00,
2013-07-18 20:02:00,84.6,72.5,29.42,SW,225,2.9,3.6,67,0.00,,,0.00,WUHU216HW,2013-07-19 01:02:00,
2013-07-18 20:07:00,84.2,72.1,29.42,SSW,203,4.9,4.9,67,0.00,,,0.00,WUHU216HW,2013-07-19 01:07:00,
2013-07-18 20:12:00,84.2,72.1,29.42,SSW,203,4.7,4.9,67,0.00,,,0.00,WUHU216HW,2013-07-19 01:12:00,
2013-07-18 20:17:00,83.9,71.7,29.41,SSW,203,5.1,5.1,67,0.00,,,0.00,WUHU216HW,2013-07-19 01:17:00,
2013-07-18 20:22:00,83.7,71.6,29.41,SSW,203,4.0,5.1,67,0.00,,,0.00,WUHU216HW,2013-07-19 01:22:00,
2013-07-18 20:27:00,83.5,71.4,29.41,SSW,203,2.7,5.1,67,0.00,,,0.00,WUHU216HW,2013-07-19 01:27:00,
2013-07-18 20:32:00,83.2,71.5,29.41,SSW,203,2.5,4.0,68,0.00,,,0.00,WUHU216HW,2013-07-19 01:32:00,
2013-07-18 20:37:00,83.0,71.7,29.41,SSW,203,3.4,3.6,69,0.00,,,0.00,WUHU216HW,2013-07-19 01:37:00,
2013-07-18 20:42:00,82.8,71.6,29.41,SSW,203,4.0,4.0,69,0.00,,,0.00,WUHU216HW,2013-07-19 01:42:00,
2013-07-18 20:47:00,82.8,72.0,29.41,SW,225,4.7,4.7,70,0.00,,,0.00,WUHU216HW,2013-07-19 01:47:00,
2013-07-18 20:52:00,82.6,71.8,29.41,SSW,203,3.8,4.7,70,0.00,,,0.00,WUHU216HW,2013-07-19 01:52:00,
2013-07-18 20:57:00,82.6,71.8,29.41,West,270,4.3,4.7,70,0.00,,,0.00,WUHU216HW,2013-07-19 01:57:00,
2013-07-18 21:02:00,82.4,71.6,29.41,SW,225,4.7,7.6,70,0.00,,,0.00,WUHU216HW,2013-07-19 02:02:00,
2013-07-18 21:07:00,82.4,71.6,29.41,SW,225,4.7,7.6,70,0.00,,,0.00,WUHU216HW,2013-07-19 02:07:00,
2013-07-18 21:12:00,82.3,71.5,29.41,SSW,203,2.5,4.7,70,0.00,,,0.00,WUHU216HW,2013-07-19 02:12:00,
2013-07-18 21:17:00,82.1,72.2,29.42,SSW,203,2.9,4.7,72,0.00,,,0.00,WUHU216HW,2013-07-19 02:17:00,
2013-07-18 21:22:00,81.9,71.6,29.42,SSW,203,3.1,3.4,71,0.00,,,0.00,WUHU216HW,2013-07-19 02:22:00,
2013-07-18 21:27:00,81.7,71.4,29.42,SSW,203,2.5,3.1,71,0.00,,,0.00,WUHU216HW,2013-07-19 02:27:00,
2013-07-18 21:32:00,81.5,71.3,29.42,SSW,203,4.3,4.3,71,0.00,,,0.00,WUHU216HW,2013-07-19 02:32:00,
2013-07-18 21:37:00,81.4,71.5,29.42,SSW,203,3.4,4.3,72,0.00,,,0.00,WUHU216HW,2013-07-19 02:37:00,
2013-07-18 21:42:00,81.4,71.5,29.42,SSW,203,4.3,4.3,72,0.00,,,0.00,WUHU216HW,2013-07-19 02:42:00,
2013-07-18 21:47:00,81.0,71.6,29.43,SSW,203,3.1,4.3,73,0.00,,,0.00,WUHU216HW,2013-07-19 02:47:00,
2013-07-18 21:52:00,81.0,71.9,29.43,SSW,203,4.7,4.7,74,0.00,,,0.00,WUHU216HW,2013-07-19 02:52:00,
2013-07-18 21:57:00,81.0,71.9,29.43,SSW,203,3.8,4.7,74,0.00,,,0.00,WUHU216HW,2013-07-19 02:57:00,
2013-07-18 22:02:00,80.8,71.7,29.43,SSW,203,3.8,4.7,74,0.00,,,0.00,WUHU216HW,2013-07-19 03:02:00,
2013-07-18 22:07:00,80.8,71.7,29.43,SSW,203,3.8,3.8,74,0.00,,,0.00,WUHU216HW,2013-07-19 03:07:00,
2013-07-18 22:12:00,80.6,71.7,29.43,SSW,203,4.7,4.7,74,0.00,,,0.00,WUHU216HW,2013-07-19 03:12:00,
2013-07-18 22:17:00,80.6,72.0,29.43,SSW,203,2.5,4.7,75,0.00,,,0.00,WUHU216HW,2013-07-19 03:17:00,
2013-07-18 22:22:00,80.5,71.8,29.43,SW,225,4.0,4.7,75,0.00,,,0.00,WUHU216HW,2013-07-19 03:22:00,
2013-07-18 22:27:00,80.5,71.8,29.43,SSW,203,4.3,4.3,75,0.00,,,0.00,WUHU216HW,2013-07-19 03:27:00,
2013-07-18 22:32:00,80.3,71.6,29.43,South,180,4.3,4.3,75,0.00,,,0.00,WUHU216HW,2013-07-19 03:32:00,
2013-07-18 22:37:00,80.3,71.6,29.42,SW,225,4.3,4.3,75,0.00,,,0.00,WUHU216HW,2013-07-19 03:37:00,
2013-07-18 22:42:00,80.1,71.5,29.42,SSW,203,6.0,6.0,75,0.00,,,0.00,WUHU216HW,2013-07-19 03:42:00,
2013-07-18 22:47:00,80.1,71.5,29.42,SSW,203,4.3,6.0,75,0.00,,,0.00,WUHU216HW,2013-07-19 03:47:00,
2013-07-18 22:52:00,80.1,71.5,29.42,SSW,203,5.8,6.0,75,0.00,,,0.00,WUHU216HW,2013-07-19 03:52:00,
2013-07-18 22:57:00,79.9,71.6,29.42,SSW,203,5.6,5.8,76,0.00,,,0.00,WUHU216HW,2013-07-19 03:57:00,
2013-07-18 23:01:00,79.7,71.5,29.42,SW,225,4.0,5.8,76,0.00,,,0.00,WUHU216HW,2013-07-19 04:01:00,
2013-07-18 23:06:00,79.6,71.3,29.41,SSW,203,4.0,5.6,76,0.00,,,0.00,WUHU216HW,2013-07-19 04:06:00,
2013-07-18 23:11:00,79.6,71.7,29.42,SSW,203,4.0,4.0,77,0.00,,,0.00,WUHU216HW,2013-07-19 04:11:00,
2013-07-18 23:16:00,79.4,71.6,29.42,SSW,203,4.7,4.7,77,0.00,,,0.00,WUHU216HW,2013-07-19 04:16:00,
2013-07-18 23:21:00,79.2,71.4,29.42,SSW,203,5.4,5.4,77,0.00,,,0.00,WUHU216HW,2013-07-19 04:21:00,
2013-07-18 23:26:00,79.2,71.4,29.41,SW,225,3.8,5.4,77,0.00,,,0.00,WUHU216HW,2013-07-19 04:26:00,
2013-07-18 23:31:00,79.2,71.4,29.41,SW,225,4.5,5.4,77,0.00,,,0.00,WUHU216HW,2013-07-19 04:31:00,
2013-07-18 23:36:00,79.0,71.6,29.41,SSW,203,5.8,5.8,78,0.00,,,0.00,WUHU216HW,2013-07-19 04:36:00,
2013-07-18 23:41:00,78.8,71.4,29.40,SSW,203,4.3,5.8,78,0.00,,,0.00,WUHU216HW,2013-07-19 04:41:00,
2013-07-18 23:46:00,78.8,71.4,29.40,SSW,203,5.4,5.8,78,0.00,,,0.00,WUHU216HW,2013-07-19 04:46:00,
2013-07-18 23:51:00,78.5,71.5,29.40,SSW,203,4.3,5.4,79,0.00,,,0.00,WUHU216HW,2013-07-19 04:51:00,
2013-07-18 23:56:00,78.5,71.5,29.40,SSW,203,6.9,6.9,79,0.00,,,0.00,WUHU216HW,2013-07-19 04:56:00,